User: anonymous   Login
Location: Unspecified
(0.0000°N, 0.0000°E)
Time: 17:16:33
(UTC+00:00)
Language:

LEMUR 1 - Orbit

View from above orbital plane
View from above orbital plane
View from above satellite
View from above satellite

Ground track
Ground track

The orbit data is extracted from the following two-line orbital elements,

1 40044U 14033AL  21337.11328169  .00000342  00000-0  57258-4 0  9990
2 40044  97.6598 171.2512 0060163  75.1845 285.6019 14.74482263400953
Epoch (UTC): 03 December 2021 02:43:07
Eccentricity: 0.0060163
inclination: 97.6598°
perigee height: 604 km
apogee height: 689 km
right ascension of ascending node: 171.2512°
argument of perigee: 75.1845°
revolutions per day: 14.74482263
mean anomaly at epoch: 285.6019°
orbit number at epoch: 40095

The dashed part of the orbit path shows where the satellite is in the earth's shadow,  

DLR